{"data":{"norad_id":58445,"epoch":"2026-05-24T21:52:44.431968Z","epoch_age_seconds":81915,"freshness":"FRESH","line1":"1 58445U 23183J   26144.91162537  .00001684  00000+0  70711-4 0  9992","line2":"2 58445  43.0044 330.9699 0001537 269.0958  90.9718 15.27583944138393","mean_motion":15.27583944,"eccentricity":0.0001537,"inclination_deg":43.0044,"raan_deg":330.9699,"arg_perigee_deg":269.0958,"mean_anomaly_deg":90.9718,"bstar":7.0711e-5,"rev_number":13839,"period_min":94.26650533059,"perigee_km":481.98272382241,"apogee_km":484.09184879802,"semimajor_km":6861.1742863102,"source":"CELESTRAK","updated_at":"2026-05-25T13:38:18.623377Z"}}